Location: Carnières
(50.1682°N, 3.3474°E)
Time: 05:22:56
(UTC+00:00)

MOZ.5/SAFIR/RUBIN 5/SL-8 - Pass Details

Date: 10 August 2024
Orbit: 671 x 698 km, 98.3° (Epoch: 08 September)

Event Time Altitude Azimuth Distance (km) Brightness Sun altitude
Exits shadow 00:24:33 24° 108° (ESE) 1,406 5.2 -24.0°
Maximum altitude 00:26:29 34° 65° (ENE) 1,132 5.1 -23.9°
Drops below altitude 10° 00:30:45 10° 1° (N) 2,167 7.4 -23.8°
Sets 00:33:10 0° 352° (N) 3,092 8.4 -23.7°
